Year,Month,Day,Hour,Minute,Value (Times are PST for temperature in C)
2018,03,25,00,00,0.70
2018,03,25,00,01,0.70
2018,03,25,00,02,0.70
2018,03,25,00,03,0.70
2018,03,25,00,04,0.60
2018,03,25,00,05,0.60
2018,03,25,00,06,0.60
2018,03,25,00,07,0.60
2018,03,25,00,08,0.60
2018,03,25,00,09,0.60
2018,03,25,00,10,0.50
2018,03,25,00,11,0.50
2018,03,25,00,12,0.50
2018,03,25,00,13,0.40
2018,03,25,00,14,0.40
2018,03,25,00,15,0.40
2018,03,25,00,16,0.40
2018,03,25,00,17,0.40
2018,03,25,00,18,0.40
2018,03,25,00,19,0.30
2018,03,25,00,20,0.30
2018,03,25,00,21,0.30
2018,03,25,00,22,0.30
2018,03,25,00,23,0.30
2018,03,25,00,24,0.30
2018,03,25,00,25,0.20
2018,03,25,00,26,0.20
2018,03,25,00,27,0.20
2018,03,25,00,28,0.20
2018,03,25,00,29,0.20
2018,03,25,00,30,0.20
2018,03,25,00,31,0.20
2018,03,25,00,32,0.20
2018,03,25,00,33,0.20
2018,03,25,00,34,0.10
2018,03,25,00,35,0.20
2018,03,25,00,36,0.20
2018,03,25,00,37,0.20
2018,03,25,00,38,0.20
2018,03,25,00,39,0.20
2018,03,25,00,40,0.20
2018,03,25,00,41,0.20
2018,03,25,00,42,0.20
2018,03,25,00,43,0.20
2018,03,25,00,44,0.20
2018,03,25,00,45,0.20
2018,03,25,00,46,0.20
2018,03,25,00,47,0.20
2018,03,25,00,48,0.20
2018,03,25,00,49,0.20
2018,03,25,00,50,0.10
2018,03,25,00,51,0.10
2018,03,25,00,52,0.10
2018,03,25,00,53,0.10
2018,03,25,00,54,0.10
2018,03,25,00,55,0.10
2018,03,25,00,56,0.10
2018,03,25,00,57,0.10
2018,03,25,00,58,0.10
2018,03,25,00,59,0.00
2018,03,25,01,00,0.00
2018,03,25,01,01,0.00
2018,03,25,01,02,0.00
2018,03,25,01,03,0.00
2018,03,25,01,04,0.00
2018,03,25,01,05,0.00
2018,03,25,01,06,0.00
2018,03,25,01,07,0.00
2018,03,25,01,08,0.00
2018,03,25,01,09,-0.10
2018,03,25,01,10,-0.10
2018,03,25,01,11,-0.10
2018,03,25,01,12,-0.10
2018,03,25,01,13,-0.10
2018,03,25,01,14,-0.10
2018,03,25,01,15,-0.10
2018,03,25,01,16,-0.10
2018,03,25,01,17,-0.20
2018,03,25,01,18,-0.20
2018,03,25,01,19,-0.20
2018,03,25,01,20,-0.20
2018,03,25,01,21,-0.20
2018,03,25,01,22,-0.20
2018,03,25,01,23,-0.10
2018,03,25,01,24,-0.10
2018,03,25,01,25,-0.10
2018,03,25,01,26,-0.10
2018,03,25,01,27,-0.10
2018,03,25,01,28,-0.20
2018,03,25,01,29,-0.20
2018,03,25,01,30,-0.20
2018,03,25,01,31,-0.20
2018,03,25,01,32,-0.20
2018,03,25,01,33,-0.20
2018,03,25,01,34,-0.20
2018,03,25,01,35,-0.20
2018,03,25,01,36,-0.20
2018,03,25,01,37,-0.20
2018,03,25,01,38,-0.20
2018,03,25,01,39,-0.20
2018,03,25,01,40,-0.20
2018,03,25,01,41,-0.20
2018,03,25,01,42,-0.10
2018,03,25,01,43,-0.10
2018,03,25,01,44,-0.10
2018,03,25,01,45,-0.10
2018,03,25,01,46,0.00
2018,03,25,01,47,0.00
2018,03,25,01,48,0.10
2018,03,25,01,49,0.10
2018,03,25,01,50,0.10
2018,03,25,01,51,0.10
2018,03,25,01,52,0.10
2018,03,25,01,53,0.10
2018,03,25,01,54,0.10
2018,03,25,01,55,0.10
2018,03,25,01,56,0.10
2018,03,25,01,57,0.10
2018,03,25,01,58,0.10
2018,03,25,01,59,0.10
2018,03,25,02,00,0.00
2018,03,25,02,01,0.00
2018,03,25,02,02,0.00
2018,03,25,02,03,0.00
2018,03,25,02,04,0.00
2018,03,25,02,05,0.10
2018,03,25,02,06,0.10
2018,03,25,02,07,0.10
2018,03,25,02,08,0.10
2018,03,25,02,09,0.10
2018,03,25,02,10,0.10
2018,03,25,02,11,0.10
2018,03,25,02,12,0.10
2018,03,25,02,13,0.20
2018,03,25,02,14,0.20
2018,03,25,02,15,0.10
2018,03,25,02,16,0.10
2018,03,25,02,17,0.10
2018,03,25,02,18,0.10
2018,03,25,02,19,0.10
2018,03,25,02,20,0.10
2018,03,25,02,21,0.10
2018,03,25,02,22,0.10
2018,03,25,02,23,0.00
2018,03,25,02,24,0.00
2018,03,25,02,25,0.00
2018,03,25,02,26,-0.10
2018,03,25,02,27,-0.10
2018,03,25,02,28,-0.10
2018,03,25,02,29,-0.10
2018,03,25,02,30,-0.10
2018,03,25,02,31,-0.20
2018,03,25,02,32,-0.20
2018,03,25,02,33,-0.20
2018,03,25,02,34,-0.20
2018,03,25,02,35,-0.20
2018,03,25,02,36,-0.20
2018,03,25,02,37,-0.20
2018,03,25,02,38,-0.20
2018,03,25,02,39,-0.30
2018,03,25,02,40,-0.30
2018,03,25,02,41,-0.30
2018,03,25,02,42,-0.30
2018,03,25,02,43,-0.30
2018,03,25,02,44,-0.40
2018,03,25,02,45,-0.40
2018,03,25,02,46,-0.40
2018,03,25,02,47,-0.40
2018,03,25,02,48,-0.40
2018,03,25,02,49,-0.50
2018,03,25,02,50,-0.50
2018,03,25,02,51,-0.50
2018,03,25,02,52,-0.60
2018,03,25,02,53,-0.60
2018,03,25,02,54,-0.60
2018,03,25,02,55,-0.60
2018,03,25,02,56,-0.60
2018,03,25,02,57,-0.60
2018,03,25,02,58,-0.70
2018,03,25,02,59,-0.70
2018,03,25,03,00,-0.70
2018,03,25,03,01,-0.70
2018,03,25,03,02,-0.70
2018,03,25,03,03,-0.70
2018,03,25,03,04,-0.70
2018,03,25,03,05,-0.70
2018,03,25,03,06,-0.70
2018,03,25,03,07,-0.70
2018,03,25,03,08,-0.70
2018,03,25,03,09,-0.70
2018,03,25,03,10,-0.70
2018,03,25,03,11,-0.80
2018,03,25,03,12,-0.80
2018,03,25,03,13,-0.80
2018,03,25,03,14,-0.80
2018,03,25,03,15,-0.80
2018,03,25,03,16,-0.80
2018,03,25,03,17,-0.80
2018,03,25,03,18,-0.80
2018,03,25,03,19,-0.80
2018,03,25,03,20,-0.90
2018,03,25,03,21,-0.90
2018,03,25,03,22,-0.90
2018,03,25,03,23,-0.90
2018,03,25,03,24,-0.90
2018,03,25,03,25,-0.90
2018,03,25,03,26,-0.90
2018,03,25,03,27,-0.90
2018,03,25,03,28,-0.90
2018,03,25,03,29,-0.90
2018,03,25,03,30,-0.90
2018,03,25,03,31,-0.90
2018,03,25,03,32,-0.90
2018,03,25,03,33,-1.00
2018,03,25,03,34,-1.00
2018,03,25,03,35,-1.00
2018,03,25,03,36,-1.00
2018,03,25,03,37,-1.00
2018,03,25,03,38,-1.00
2018,03,25,03,39,-1.00
2018,03,25,03,40,-1.10
2018,03,25,03,41,-1.10
2018,03,25,03,42,-1.10
2018,03,25,03,43,-1.10
2018,03,25,03,44,-1.10
2018,03,25,03,45,-1.10
2018,03,25,03,46,-1.10
2018,03,25,03,47,-1.10
2018,03,25,03,48,-1.10
2018,03,25,03,49,-1.10
2018,03,25,03,50,-1.10
2018,03,25,03,51,-1.10
2018,03,25,03,52,-1.10
2018,03,25,03,53,-1.10
2018,03,25,03,54,-1.10
2018,03,25,03,55,-1.10
2018,03,25,03,56,-1.10
2018,03,25,03,57,-1.10
2018,03,25,03,58,-1.10
2018,03,25,03,59,-1.10
2018,03,25,04,00,-1.10
2018,03,25,04,01,-1.10
